Location: Eisten
(46.1966°N, 7.8966°E)
Time: 01:53:37
(UTC+00:00)

Daily predictions for brighter satellites

Satellite Brightness Start Highest point End
(mag) Time Altitude Azimuth Time Altitude Azimuth Time Altitude Azimuth
USA 267 4.4 03:25:41 10° SE 03:29:01 32° SSE 03:29:01 32° SSE
Cosmos 2278 Rocket 4.1 03:36:40 20° SE 03:36:40 20° SE 03:38:23 10° SSE
Cosmos 2219 Rocket 4.1 03:41:53 20° NNE 03:41:53 20° NNE 03:43:35 10° NNE
Cosmos 2237 Rocket 3.0 03:43:06 49° ENE 03:43:06 49° ENE 03:47:41 10° NNE
BREEZE-M DEB (TANK) 3.9 03:55:50 66° WNW 03:57:10 89° SSW 04:01:31 10° ESE
Cosmos 1513 Rocket 4.5 03:57:03 70° SSE 03:57:42 77° E 04:03:53 10° N
Cosmos 2333 Rocket 4.0 04:04:35 20° N 04:04:35 20° N 04:06:37 10° NNE
Lacrosse 4 Rocket 2.9 04:04:26 36° E 04:04:26 36° E 04:07:47 10° NE
FENGYUN 3A 4.2 04:01:00 10° NNE 04:04:53 49° NNE 04:04:53 49° NNE
Cosmos 1891 Rocket 4.3 04:10:03 84° NW 04:10:03 84° NW 04:16:01 10° N
Cosmos 2360 Rocket 4.4 04:15:25 12° N 04:15:25 12° N 04:15:59 10° N
Cosmos 1464 Rocket 3.8 04:13:47 59° SSW 04:15:03 85° W 04:21:16 10° N
Gbstr 26 Del rocket 4.4 04:13:50 57° SW 04:15:35 83° SSE 04:23:45 10° ENE
Cosmos 841 Rocket 3.8 04:16:53 55° NNE 04:16:53 55° NNE 04:20:55 10° NNE
Cosmos 1980 3.7 04:17:06 68° N 04:17:06 68° N 04:22:11 10° NNE
MOS 1 Rocket 4.4 04:14:14 10° SE 04:18:44 42° ENE 04:23:03 10° N
Meteor 1-21 Rocket 4.2 04:17:53 36° N 04:20:26 89° E 04:26:18 10° S
Meteor 2-13 Rocket 4.4 04:15:07 10° N 04:21:20 85° E 04:27:28 10° S
FALCON 9 R/B 4.2 04:24:54 11° SSW 04:24:54 11° SSW 04:25:18 10° S
Cosmos 1072 Rocket 4.3 04:22:08 65° WSW 04:22:47 70° W 04:29:09 10° N
COSMOS 2428 4.1 04:25:09 25° NNW 04:25:09 25° NNW 04:28:01 10° NNE
SKYMED 2 4.0 04:18:58 10° SSE 04:23:13 59° ENE 04:23:56 51° NNE
Atlas Centaur 2 4.2 04:26:50 20° SSW 04:28:43 22° S 04:34:30 10° SE
ATLAS CENTAUR R/B 2.2 04:31:44 40° NE 04:31:44 40° NE 04:34:12 10° NE
METEOR-M 4.0 04:28:14 10° N 04:33:36 72° WNW 04:34:33 58° SW
Cosmos 1689 Rocket 4.2 04:33:01 10° SE 04:35:28 25° ENE 04:35:31 25° ENE
Cosmos 2150 Rocket 4.3 04:33:50 23° NNW 04:37:11 69° ENE 04:42:35 10° SSE
Lacrosse 5 rocket 3.7 04:40:11 11° S 04:40:11 11° S 04:40:25 10° S
Cosmos 2084 Rocket 3.4 04:37:18 84° NNE 04:37:22 85° NE 04:41:53 10° SE
Cosmos 1092 Rocket 4.2 04:32:17 10° N 04:38:26 69° E 04:44:36 10° SSE
Cosmos 1340 4.2 04:42:00 27° S 04:42:00 27° S 04:43:48 10° S
Cosmos 372 Rocket 3.9 04:40:33 60° WSW 04:40:33 60° WSW 04:45:32 10° S
ALOS 4.1 04:36:28 10° N 04:37:53 19° N 04:37:53 19° N
USA 215 3.9 04:35:34 10° NE 04:41:31 39° NNW 04:43:15 33° NW
Cosmos 1602 Rocket 3.6 04:40:25 28° N 04:42:46 83° E 04:47:14 10° S
BREEZE-M DEB (TANK) 4.4 04:44:16 18° ENE 04:44:16 18° ENE 04:45:03 10° ENE
GEOS 3 Rocket 4.5 04:38:18 10° ESE 04:43:26 48° NE 04:46:52 21° NNW
ADEOS 3.4 04:38:46 10° N 04:43:58 71° WNW 04:47:41 19° SSW
USA 307 2.7 04:44:43 78° SSW 04:44:57 84° SE 04:49:11 10° ENE
NOSS 0 Rocket 4.2 04:45:40 44° WNW 04:46:04 44° NW 04:51:59 10° NNE
FALCON 9 DEB 4.5 04:46:55 31° SE 04:47:01 31° SE 04:49:49 10° ENE
Cosmos 1328 3.7 04:46:59 48° N 04:47:59 81° E 04:51:53 10° S
Nadezhda 4 Rocket 3.8 04:42:52 10° NNW 04:48:54 63° W 04:54:56 10° S
BREEZE-M (TANK) 4.0 04:52:16 17° SE 04:52:16 17° SE 04:52:49 10° SE
USA 305 2.7 04:50:49 72° WSW 04:51:14 86° NNW 04:55:30 10° ENE
USA 308 2.8 04:53:18 64° WSW 04:53:56 86° NNW 04:58:14 10° ENE
Cosmos 1400 Rocket 2.7 04:53:19 55° SW 04:54:05 71° WNW 04:58:14 10° N
Cosmos 2098 Rocket 4.2 04:48:38 10° N 04:54:14 53° ENE 04:58:39 10° SSE
SL-4 R/B 1.7 04:55:30 72° NW 04:55:35 73° NNW 04:59:36 10° ENE
FALCON 9 DEB 4.4 04:55:02 29° SSE 04:55:42 33° SE 04:58:34 10° ENE
Cosmos 1943 Rocket 2.6 04:51:10 13° NNW 04:56:15 61° ENE 05:01:51 10° SE
Cosmos 2034 Rocket 4.0 04:50:26 10° SSW 04:56:42 60° WNW 05:03:00 10° N
Meteor 1-16 Rocket 4.2 04:51:49 10° SSW 04:57:41 66° WNW 05:03:36 10° N
Cosmos 1570 Rocket 4.2 04:57:36 44° W 04:58:18 47° WNW 05:03:23 10° NNE
CZ-4B R/B 4.0 04:57:10 10° S 04:57:25 12° S 04:57:25 12° S
Cosmos 540 Rocket 4.1 05:01:40 33° NW 05:01:40 33° NW 05:05:50 10° N
CZ-2C R/B 4.1 04:56:34 10° SE 05:01:22 36° ENE 05:06:16 10° N
SJ-12 3.9 04:58:09 10° N 05:02:14 58° WNW 05:04:12 28° SW
USA 306 2.8 05:02:36 52° W 05:03:31 73° NNW 05:07:45 10° NE
Cosmos 2298 Rocket 3.9 05:00:29 22° NNW 05:03:53 68° WSW 05:09:10 10° S
Cosmos 1814 Rocket 4.2 05:03:50 39° W 05:04:58 45° WNW 05:09:54 10° N
NOSS 3-2 (A) 3.3 05:00:28 17° SW 05:04:58 86° NW 05:11:33 10° NE
Envisat 3.7 05:01:27 10° NNE 05:06:28 57° E 05:11:27 10° S
Cosmos 2369 Rocket 3.2 05:01:12 10° NNW 05:06:35 45° NE 05:11:55 10° SE
Cosmos 1125 Rocket 3.5 05:01:52 13° NNW 05:06:41 88° ENE 05:12:01 10° SSE
Cosmos 1634 Rocket 4.1 05:00:49 10° S 05:06:57 80° E 05:13:10 10° N
COSMO-SKYMED 1 2.8 05:07:12 10° S 05:11:20 43° W 05:12:33 35° WNW
CZ-4B R/B 2.5 05:07:41 10° N 05:11:20 70° WNW 05:15:06 10° SSW
PSLV R/B 3.8 05:09:15 10° S 05:13:22 76° WSW 05:17:34 10° NNW
Cosmos 2278 Rocket 4.0 05:18:36 14° SW 05:18:36 14° SW 05:19:47 10° SW
Cosmos 2228 3.2 05:12:58 10° S 05:17:10 70° E 05:21:24 10° NNE
SL-16 R/B 2.1 05:12:24 10° SSW 05:18:02 74° WNW 05:23:45 10° NNE
NOSS 3-2 (C) 3.5 05:13:01 10° SSW 05:18:37 75° SE 05:25:04 10° NE
CZ-2C R/B 3.5 05:19:17 12° SW 05:20:52 14° SSW 05:23:09 10° SSE
ERBS 3.7 05:18:36 10° SSW 05:21:39 36° SE 05:24:41 10° ENE
Cosmos 972 Rocket 4.3 05:16:13 10° SSW 05:22:26 66° WNW 05:28:01 10° NNE
Cosmos 2219 Rocket 4.0 05:23:36 13° NNW 05:23:36 13° NNW 05:25:52 10° N
Cosmos 1953 Rocket 4.1 05:19:18 10° N 05:23:36 59° ENE 05:27:54 10° SSE
ERS-2 2.5 05:20:35 10° S 05:24:02 40° W 05:25:09 31° WNW
Cosmos 2026 Rocket 4.0 05:18:20 10° NNW 05:24:40 71° W 05:31:01 10° S
CENTAUR R/B 2.5 05:19:57 10° SW 05:25:51 87° SE 05:32:57 10° NE
ATLAS 5 CENTAUR R/B 3.5 05:25:47 16° SW 05:25:59 16° SW 05:29:04 10° S
Cosmos 2237 Rocket 3.1 05:24:59 25° WNW 05:26:32 28° NW 05:31:24 10° N
H-2A R/B 2.7 05:24:39 10° N 05:28:20 56° WNW 05:32:00 10° SSW
FALCON 9 DEB 3.1 05:30:00 20° SW 05:31:58 70° SE 05:35:06 10° ENE
Meteor PRIRODA 4.0 05:29:32 10° N 05:32:57 39° WNW 05:36:21 10° SW
Cosmos 1606 Rocket 3.4 05:29:18 10° S 05:33:37 88° W 05:37:59 10° N
NOAA 6 4.3 05:32:15 10° NNE 05:37:28 76° ESE 05:42:38 10° S
FALCON 9 DEB 2.8 05:38:25 20° WSW 05:40:28 88° NNW 05:43:35 10° ENE
Lacrosse 4 Rocket 2.5 05:40:48 21° W 05:42:30 27° NW 05:46:16 10° NNE
Meteor 1-11 4.5 05:40:10 10° NNW 05:45:26 44° W 05:50:41 10° SSW
Cosmos 1300 2.9 05:41:56 10° SSW 05:45:35 45° WNW 05:49:17 10° N
SAR-Lupe-4 4.5 05:44:34 10° SSW 05:47:42 28° W 05:50:19 13° NW
Cosmos 1315 Rocket 2.9 05:46:23 10° SSW 05:50:10 48° WNW 05:54:00 10° N
deb Chang Zheng 4 4.4 05:47:00 10° N 05:50:33 26° WNW 05:54:05 10° WSW
Cosmos 2142 Rocket 4.5 05:44:52 10° SSW 05:51:08 69° W 05:57:24 10° N
[s.n.47389] 3.5 05:49:01 10° SW 05:51:29 44° SE 05:53:58 10° ENE
[s.n.47399] 3.5 05:49:02 10° SW 05:51:30 44° SE 05:54:01 10° ENE
[s.n.47393] 3.5 05:49:04 10° SW 05:51:34 44° SE 05:54:03 10° ENE
[s.n.47353] 3.5 05:49:09 10° SW 05:51:37 44° SE 05:54:07 10° ENE
[s.n.47355] 3.5 05:49:12 10° SW 05:51:41 44° SE 05:54:11 10° ENE
[s.n.47365] 3.5 05:49:14 10° SW 05:51:44 44° SE 05:54:14 10° ENE
[s.n.47383] 3.5 05:49:20 10° SW 05:51:48 44° SE 05:54:19 10° ENE
[s.n.47400] 3.5 05:49:19 10° SW 05:51:50 45° SE 05:54:23 10° ENE
[s.n.47378] 3.5 05:49:25 10° SW 05:51:55 44° SE 05:54:25 10° ENE
[s.n.47395] 3.5 05:49:28 10° SW 05:51:57 44° SE 05:54:27 10° ENE
[s.n.47379] 3.5 05:49:34 10° SW 05:52:03 44° SE 05:54:34 10° ENE
[s.n.47370] 3.5 05:49:35 10° SW 05:52:04 44° SE 05:54:34 10° ENE
[s.n.47351] 3.5 05:49:36 10° SW 05:52:07 45° SE 05:54:40 10° ENE
[s.n.47394] 3.5 05:49:41 10° SW 05:52:10 45° SE 05:54:41 10° ENE
[s.n.47354] 3.5 05:49:45 10° SW 05:52:14 45° SE 05:54:44 10° ENE
[s.n.47360] 3.5 05:49:47 10° SW 05:52:16 45° SE 05:54:46 10° ENE
[s.n.47369] 3.5 05:49:52 10° SW 05:52:21 45° SE 05:54:51 10° ENE
[s.n.47406] 3.4 05:49:54 10° SW 05:52:23 45° SE 05:54:54 10° ENE
[s.n.47384] 3.5 05:49:57 10° SW 05:52:27 45° SE 05:54:57 10° ENE
[s.n.47356] 3.4 05:50:00 10° SW 05:52:29 45° SE 05:55:00 10° ENE
[s.n.47407] 3.4 05:50:03 10° SW 05:52:33 45° SE 05:55:04 10° ENE
[s.n.47385] 3.5 05:50:03 10° SW 05:52:35 46° SE 05:55:08 10° ENE
[s.n.47358] 3.4 05:50:11 10° SW 05:52:40 45° SE 05:55:11 10° ENE
[s.n.47398] 3.4 05:50:12 10° SW 05:52:42 45° SE 05:55:13 10° ENE
[s.n.47361] 3.4 05:50:17 10° SW 05:52:46 45° SE 05:55:17 10° ENE
[s.n.47392] 3.4 05:50:18 10° SW 05:52:48 45° SE 05:55:18 10° ENE
[s.n.47382] 3.4 05:50:22 10° SW 05:52:52 45° SE 05:55:22 10° ENE
[s.n.47359] 3.4 05:50:23 10° SW 05:52:55 46° SE 05:55:27 10° ENE
[s.n.47401] 3.4 05:50:30 10° SW 05:53:00 46° SE 05:55:30 10° ENE
[s.n.47380] 3.4 05:50:29 10° SW 05:53:01 46° SE 05:55:34 10° ENE
[s.n.47386] 3.4 05:50:36 10° SW 05:53:06 46° SE 05:55:37 10° ENE
[s.n.47408] 3.4 05:50:36 10° SW 05:53:08 46° SE 05:55:42 10° ENE
[s.n.47396] 3.4 05:50:42 10° SW 05:53:12 46° SE 05:55:43 10° ENE
[s.n.47391] 3.4 05:50:44 10° SW 05:53:14 46° SE 05:55:45 10° ENE
[s.n.47402] 3.4 05:50:48 10° SW 05:53:17 46° SE 05:55:48 10° ENE
[s.n.47404] 3.4 05:50:51 10° SW 05:53:22 46° SE 05:55:52 10° ENE
[s.n.47403] 3.4 05:50:54 10° SW 05:53:24 46° SE 05:55:55 10° ENE
[s.n.47381] 3.4 05:50:57 10° SW 05:53:28 46° SE 05:55:58 10° ENE
Cosmos 1655 Rocket 4.2 05:47:12 10° N 05:53:29 78° E 05:59:48 10° SSE
[s.n.47372] 3.4 05:51:02 10° SW 05:53:32 46° SE 05:56:02 10° ENE
[s.n.47405] 3.4 05:51:04 10° SW 05:53:33 46° SE 05:56:05 10° ENE
[s.n.47368] 3.4 05:51:09 10° SW 05:53:39 46° SE 05:56:10 10° ENE
[s.n.47350] 3.4 05:51:12 10° SW 05:53:42 46° SE 05:56:12 10° ENE
[s.n.47349] 3.4 05:51:10 10° SW 05:53:43 47° SE 05:56:17 10° ENE
[s.n.47367] 3.4 05:51:16 10° SW 05:53:47 47° SE 05:56:18 10° ENE
[s.n.47373] 3.4 05:51:17 10° SW 05:53:49 47° SE 05:56:24 10° ENE
[s.n.47377] 3.4 05:51:20 10° SW 05:53:54 47° SE 05:56:27 10° ENE
[s.n.47371] 3.4 05:51:23 10° SW 05:53:56 47° SE 05:56:30 10° ENE
[s.n.47362] 3.4 05:51:25 10° SW 05:53:58 47° SE 05:56:33 10° ENE
[s.n.47363] 3.4 05:51:29 10° SW 05:54:02 47° SE 05:56:36 10° ENE
[s.n.47374] 3.4 05:51:35 10° SW 05:54:06 47° SE 05:56:39 10° ENE
[s.n.47357] 3.4 05:51:39 10° SW 05:54:10 47° SE 05:56:42 10° ENE
[s.n.47390] 3.4 05:51:43 10° SW 05:54:13 47° SE 05:56:45 10° ENE
[s.n.47387] 3.4 05:51:45 10° SW 05:54:16 47° SE 05:56:47 10° ENE
[s.n.47375] 3.4 05:51:46 10° SW 05:54:16 47° SE 05:56:48 10° ENE
[s.n.47376] 3.4 05:51:46 10° SW 05:54:19 48° SE 05:56:53 10° ENE
[s.n.47366] 3.4 05:51:55 10° SW 05:54:26 47° SE 05:56:59 10° ENE
[s.n.47352] 3.4 05:51:58 10° SW 05:54:29 48° SE 05:57:02 10° ENE
[s.n.47364] 3.4 05:52:02 10° SW 05:54:33 48° SE 05:57:06 10° ENE
[s.n.47388] 3.3 05:52:05 10° SW 05:54:36 48° SE 05:57:09 10° ENE
[s.n.47397] 3.3 05:52:11 10° SW 05:54:41 48° SE 05:57:13 10° ENE
Cosmos 2297 4.4 05:50:12 10° NW 05:55:15 33° WSW 06:00:18 10° SSW
PAYLOAD B 4.4 05:50:21 10° NNE 05:55:59 85° ESE 06:01:36 10° SSW
MOS 1 Rocket 4.4 05:53:16 10° SSW 05:57:07 23° W 06:00:49 10° NW
Cosmos 1346 Rocket 3.8 05:55:04 10° NW 05:58:27 27° W 06:01:48 10° SSW
ATLAS 3B R/B 4.2 05:53:04 10° S 05:59:02 39° ESE 06:05:08 10° NE
USA 238 DEB 3.8 05:54:28 10° WSW 06:00:55 53° NW 06:07:42 10° NE
USA 238 3.8 05:54:34 10° WSW 06:01:01 53° NW 06:07:48 10° NE
NOAA 12 4.1 05:59:11 10° NNE 06:04:30 89° WNW 06:09:49 10° SSW
Cosmos 1689 Rocket 3.9 06:04:51 10° SW 06:06:30 14° W 06:07:23 13° WNW
ATLAS CENTAUR R/B 2.8 06:07:56 12° WNW 06:09:50 16° NW 06:12:12 10° N
Cosmos 1441 Rocket 3.4 06:06:10 10° N 06:10:08 81° ENE 06:14:02 10° SSE
TIMED 4.5 06:07:15 10° SSW 06:11:36 71° WNW 06:16:00 10° NNE
BREEZE M DEB (TANK) 2.0 06:12:13 10° WSW 06:14:35 86° NNW 06:20:12 10° ENE
SL-19 R/B 4.1 06:11:01 10° N 06:14:39 53° WNW 06:17:49 10° SSW
FengYun 1-2 T 4.5 06:09:45 10° NNE 06:15:28 81° ESE 06:21:07 10° SSW
MOS 1-B 4.4 06:11:54 10° N 06:17:38 65° WNW 06:23:19 10° SSW
Cosmos 1726 Rocket 4.0 06:13:57 10° SW 06:17:59 38° WNW 06:22:02 10° N
YAOGAN 6 3.8 06:15:30 10° NNW 06:18:27 23° WNW 06:21:23 10° WSW
Cosmos 1892 2.9 06:15:15 10° NNW 06:18:58 50° W 06:22:43 10° S
Spot 2 4.2 06:15:26 10° N 06:19:18 46° WNW 06:23:14 10° SW
Cosmos 1184 Rocket 3.1 06:16:17 10° N 06:19:32 68° ENE 06:22:46 10° SSE
Cosmos 2058 Rocket 3.1 06:15:34 10° SSW 06:19:55 59° WNW 06:24:20 10° N
Cosmos 1603 3.7 06:15:36 10° SSW 06:21:13 85° WNW 06:26:55 10° NNE
GEOS 3 Rocket 4.3 06:16:32 10° S 06:21:30 39° WSW 06:26:33 10° NW
FALCON 9 DEB 3.3 06:19:50 10° W 06:22:49 42° NNW 06:25:48 10° NE
USA 215 4.2 06:17:49 10° ENE 06:23:36 36° N 06:29:24 10° NW
USA 307 3.8 06:21:26 10° W 06:25:18 34° NNW 06:29:11 10° NE
